178P/Hug-Bell (2027)

Japanese version
Home page
Updated on July 28, 2026

---------------------------------------------------------------------

* Profile

* Orbital Elements

Epoch 2026 June 9.0 TT = JDT 2461200.5
T 2027 June 21.57388 TT                                 Pike
q   1.8814726            (2000.0)            P               Q
n   0.14236029     Peri.  297.96334     +0.74150593     -0.64417883
a   3.6325378      Node   102.78379     +0.66310503     +0.66097560
e   0.4820501      Incl.   11.09244     +0.10227745     +0.38489595
P   6.92
From 1064 observations 1999 Oct. 10-2026 June 25, mean residual 0".8.
     Nongravitational parameters A1 = +0.40, A2 = -0.0151.

* Magnitudes Graph

        m1 = 13.0 + 5 log d + 11.0 log r(t - 60)

---------------------------------------------------------------------

The orbital elements are published on M.P.E.C. 2026-N12.
The magnitudes graphs are made with Comet for Windows.

---------------------------------------------------------------------

Copyright(C) Seiichi Yoshida (comet@aerith.net). All rights reserved.